Abilene, TX

7:04 AM CDT on May 25, 2017 (GMT -0500)
Abilene Regional

Weather History for KABI - January, 2011

Change the Weather History Date:

Thursday, January 20, 2011

  Actual Average Record
Temperature  
Mean Temperature 39 °F 45 °F  
Max Temperature 56 °F 57 °F 82 °F (1999)
Min Temperature 21 °F 33 °F 10 °F (1985)
Degree Days  
Heating Degree Days 26 20  
Month to date heating degree days 464 410  
Since 1 July heating degree days 1284 1455  
Cooling Degree Days 0 0  
Month to date cooling degree days 0 0  
Year to date cooling degree days 0 0  
Moisture  
Dew Point 24 °F    
Average Humidity 70    
Maximum Humidity 100    
Minimum Humidity 40    
Precipitation  
Precipitation T in 0.04 in 1.35 in (1968)
Month to date precipitation 0.11 0.60  
Year to date precipitation 0.11 0.60  
Sea Level Pressure  
Sea Level Pressure 30.17 in    
Wind  
Wind Speed 18 mph (North)    
Max Wind Speed 33 mph    
Max Gust Speed 43 mph    
Visibility 8 miles    
Events Rain , Snow    
T = Trace of Precipitation, MM = Missing Value Source: NWS Daily Summary

Daily Weather History Graph

Daily Weather History Graph

Search for Another Location

Airport or City:

Trip Planner

Search our weather history database for the weather conditions in past years. The results will help you decide how hot, cold, wet, or windy it might be!

Date:

Astronomy

Jan. 20, 2011 Rise Set
Actual Time 7:39 AM CST 6:00 PM CST
Civil Twilight 7:12 AM CST 6:26 PM CST
Nautical Twilight 6:42 AM CST 6:56 PM CST
Astronomical Twilight 6:13 AM CST 7:26 PM CST
Moon 7:18 PM CST (1/20) 8:03 AM CST (1/20)
Length of Visible Light 11h 14m
Length of Day
10h 21m
Full, 99% of the Moon is Illuminated
Jan 20
Full
Jan 26
Last Quarter
Feb 2
New
Feb 11
First Quarter
Feb 18
Full

Hourly Weather History & Observations

Time (CST) Temp. Windchill Dew Point Humidity Pressure Visibility Wind Dir Wind Speed Gust Speed Precip Events Conditions
12:52 AM 55.0 °F - 43.0 °F 64% 29.70 in 10.0 mi South 24.2 mph 29.9 mph N/A   Clear
1:52 AM 53.1 °F - 42.1 °F 66% 29.80 in 10.0 mi WNW 9.2 mph - N/A   Clear
2:18 AM 39.2 °F 27.6 °F 37.4 °F 93% 29.89 in 6.0 mi NNW 28.8 mph 39.1 mph N/A   Scattered Clouds
2:27 AM 39.2 °F 27.8 °F 37.4 °F 93% 29.91 in 6.0 mi North 27.6 mph 34.5 mph N/A   Mostly Cloudy
2:52 AM 37.9 °F 25.3 °F 32.0 °F 79% 29.93 in 6.0 mi North 32.2 mph 39.1 mph N/A   Haze
3:03 AM 35.6 °F 24.0 °F 28.4 °F 75% 29.97 in 7.0 mi North 23.0 mph 38.0 mph N/A   Overcast
3:24 AM 35.6 °F 23.4 °F 28.4 °F 75% 30.00 in 6.0 mi North 25.3 mph 39.1 mph N/A   Haze
3:52 AM 34.0 °F 21.3 °F 27.0 °F 75% 30.01 in 7.0 mi North 25.3 mph 38.0 mph N/A   Overcast
4:21 AM 32.0 °F 18.9 °F 28.4 °F 87% 30.04 in 4.0 mi North 24.2 mph 41.4 mph N/A   Overcast
4:33 AM 30.2 °F 16.2 °F 28.4 °F 93% 30.05 in 4.0 mi North 25.3 mph 39.1 mph 0.00 in Rain Light Freezing Rain
4:52 AM 30.9 °F 17.5 °F 30.0 °F 96% 30.06 in 3.0 mi North 24.2 mph 32.2 mph 0.00 in Rain Light Freezing Rain
5:28 AM 30.2 °F 15.9 °F 30.2 °F 100% 30.08 in 3.0 mi North 26.5 mph 34.5 mph 0.00 in Snow Light Snow
5:41 AM 30.2 °F 15.2 °F 28.4 °F 93% 30.09 in 3.0 mi North 29.9 mph 39.1 mph 0.00 in   Overcast
5:50 AM 28.4 °F 13.3 °F 28.4 °F 100% 30.09 in 4.0 mi North 27.6 mph 39.1 mph 0.00 in Rain Light Freezing Rain
5:52 AM 28.9 °F 14.0 °F 28.0 °F 96% 30.09 in 4.0 mi North 27.6 mph 35.7 mph 0.00 in Rain Light Freezing Rain
6:31 AM 28.4 °F 13.0 °F 26.6 °F 93% 30.13 in 7.0 mi North 28.8 mph 38.0 mph 0.00 in Rain Light Freezing Rain
6:41 AM 26.6 °F 9.6 °F 24.8 °F 93% 30.14 in 8.0 mi North 33.4 mph 42.6 mph 0.00 in   Overcast
6:52 AM 27.0 °F 11.3 °F 25.0 °F 92% 30.14 in 8.0 mi North 27.6 mph 34.5 mph 0.00 in   Overcast
7:31 AM 26.6 °F 10.3 °F 24.8 °F 93% 30.18 in 10.0 mi North 29.9 mph 38.0 mph N/A   Overcast
7:52 AM 26.1 °F 9.8 °F 21.9 °F 84% 30.20 in 10.0 mi North 28.8 mph 38.0 mph N/A   Overcast
8:52 AM 26.1 °F 9.8 °F 21.0 °F 81% 30.25 in 10.0 mi North 28.8 mph 33.4 mph N/A   Overcast
9:02 AM 26.6 °F 11.1 °F 19.4 °F 74% 30.27 in 10.0 mi North 26.5 mph 36.8 mph N/A   Overcast
9:52 AM 27.0 °F 13.2 °F 19.9 °F 75% 30.31 in 10.0 mi North 20.7 mph 34.5 mph N/A   Overcast
10:43 AM 28.4 °F 14.1 °F 19.4 °F 69% 30.33 in 10.0 mi North 24.2 mph - N/A   Overcast
10:52 AM 28.0 °F 14.6 °F 19.0 °F 69% 30.33 in 10.0 mi North 20.7 mph 27.6 mph N/A   Overcast
11:35 AM 30.2 °F 16.5 °F 19.4 °F 64% 30.34 in 10.0 mi North 24.2 mph 31.1 mph N/A   Overcast
11:52 AM 30.9 °F 18.7 °F 19.0 °F 61% 30.33 in 10.0 mi North 19.6 mph 28.8 mph N/A   Mostly Cloudy
12:05 PM 30.2 °F 17.1 °F 17.6 °F 60% 30.32 in 10.0 mi North 21.9 mph 28.8 mph N/A   Scattered Clouds
12:52 PM 34.0 °F 21.5 °F 19.0 °F 54% 30.30 in 10.0 mi North 24.2 mph 29.9 mph N/A   Clear
1:52 PM 36.0 °F 23.9 °F 19.0 °F 50% 30.27 in 10.0 mi North 25.3 mph 28.8 mph N/A   Clear
2:52 PM 37.9 °F 27.1 °F 18.0 °F 45% 30.29 in 10.0 mi North 23.0 mph 27.6 mph N/A   Clear
3:52 PM 39.0 °F 29.9 °F 17.1 °F 41% 30.30 in 10.0 mi North 17.3 mph - N/A   Clear
4:52 PM 37.9 °F 29.2 °F 16.0 °F 41% 30.30 in 10.0 mi North 15.0 mph 24.2 mph N/A   Clear
5:52 PM 36.0 °F 29.0 °F 16.0 °F 44% 30.31 in 10.0 mi North 9.2 mph - N/A   Clear
6:52 PM 33.1 °F 27.7 °F 16.0 °F 50% 30.32 in 10.0 mi North 5.8 mph - N/A   Clear
7:52 PM 30.9 °F 26.2 °F 17.1 °F 57% 30.33 in 10.0 mi North 4.6 mph - N/A   Clear
8:52 PM 30.9 °F 26.2 °F 16.0 °F 54% 30.32 in 10.0 mi NNE 4.6 mph - N/A   Clear
9:52 PM 27.0 °F 21.6 °F 16.0 °F 63% 30.32 in 10.0 mi ENE 4.6 mph - N/A   Clear
10:52 PM 26.1 °F 18.4 °F 15.1 °F 63% 30.31 in 10.0 mi East 6.9 mph - N/A   Clear
11:52 PM 21.0 °F 16.2 °F 14.0 °F 74% 30.29 in 10.0 mi SE 3.5 mph - N/A   Clear